Seldovia, AK

11:38 AM AKST on December 15, 2017 (GMT -0900)
Seldovia

Weather History for PASO - February, 2014

Change the Weather History Date:

Wednesday, February 26, 2014

  Actual Average (PAHO) Record (PAHO)
Temperature  
Mean Temperature 36 °F -  
Max Temperature 39 °F 35 °F 47 °F (1970)
Min Temperature 33 °F 22 °F -8 °F (1954)
Degree Days  
Heating Degree Days 29    
Moisture  
Dew Point 36 °F    
Average Humidity 98    
Maximum Humidity 100    
Minimum Humidity 73    
Precipitation  
Precipitation 0.49 in - - ()
Sea Level Pressure  
Sea Level Pressure 29.66 in    
Wind  
Wind Speed 4 mph (South)    
Max Wind Speed 18 mph    
Max Gust Speed 26 mph    
Visibility 5 miles    
Events Fog , Rain    
Averages and records for this station are not official NWS values.
T = Trace of Precipitation, MM = Missing Value Source: NWS Daily Summary

Daily Weather History Graph

Daily Weather History Graph

Search for Another Location

Airport or City:

Trip Planner

Search our weather history database for the weather conditions in past years. The results will help you decide how hot, cold, wet, or windy it might be!

Date:

Astronomy

Feb. 26, 2014 Rise Set
Actual Time 8:11 AM AKST 6:28 PM AKST
Civil Twilight 7:30 AM AKST 7:09 PM AKST
Nautical Twilight 6:43 AM AKST 7:57 PM AKST
Astronomical Twilight 5:55 AM AKST 8:45 PM AKST
Moon 6:37 AM AKST (2/26) 3:28 PM AKST (2/26)
Length of Visible Light 11h 39m
Length of Day
10h 16m
Waning Crescent, 9% of the Moon is Illuminated
Feb 26
Waning Crescent
Feb 28
New
Mar 8
First Quarter
Mar 16
Full
Mar 23
Last Quarter

Hourly Weather History & Observations

Time (AKST) Temp. Windchill Dew Point Humidity Pressure Visibility Wind Dir Wind Speed Gust Speed Precip Events Conditions
12:53 AM 39.9 °F 30.8 °F 32.0 °F 73% 29.73 in 10.0 mi NNE 18.4 mph 26.5 mph 0.00 in Rain Light Rain
1:53 AM 37.0 °F 34.5 °F 34.0 °F 89% 29.75 in 10.0 mi SSE 3.5 mph - 0.01 in Rain Light Rain
2:53 AM 37.0 °F 32.4 °F 33.1 °F 86% 29.75 in 9.0 mi SE 5.8 mph - 0.02 in Rain Light Rain
3:53 AM 35.1 °F - 34.0 °F 96% 29.75 in 9.0 mi Calm Calm - 0.02 in Rain Light Rain
4:53 AM 34.0 °F - 34.0 °F 100% 29.74 in 5.0 mi Calm Calm - 0.04 in Rain Rain
5:53 AM 33.1 °F - 33.1 °F 100% 29.71 in 10.0 mi Calm Calm - 0.02 in Rain Light Rain
6:53 AM 33.1 °F - 33.1 °F 100% 29.69 in 9.0 mi Calm Calm - 0.01 in Rain Light Rain
7:53 AM 33.1 °F 30.0 °F 33.1 °F 100% 29.68 in 7.0 mi Variable 3.5 mph - 0.05 in Rain Light Rain
8:53 AM 34.0 °F 31.0 °F 34.0 °F 100% 29.67 in 3.0 mi South 3.5 mph - 0.04 in Rain Light Rain
9:53 AM 35.1 °F 32.2 °F 35.1 °F 100% 29.65 in 8.0 mi SW 3.5 mph - 0.02 in Rain Light Rain
10:53 AM 36.0 °F - 36.0 °F 100% 29.65 in 7.0 mi Calm Calm - 0.01 in Rain Light Rain
11:53 AM 37.0 °F - 36.0 °F 96% 29.65 in 4.0 mi Calm Calm - 0.01 in Rain Light Rain
12:09 PM 37.4 °F 34.9 °F 37.4 °F 100% 29.65 in 1.8 mi South 3.5 mph - 0.01 in Rain Light Rain
12:31 PM 35.6 °F - 35.6 °F 100% 29.65 in 2.0 mi Calm Calm - 0.02 in Rain Light Rain
12:53 PM 36.0 °F 33.3 °F 36.0 °F 100% 29.65 in 2.0 mi South 3.5 mph - 0.03 in Rain Light Rain
1:01 PM 35.6 °F 32.8 °F 35.6 °F 100% 29.64 in 1.0 mi SSW 3.5 mph - 0.01 in Rain Light Rain
1:38 PM 37.4 °F - 37.4 °F 100% 29.64 in 3.0 mi Calm Calm - 0.02 in Rain Light Rain
1:44 PM 37.4 °F - 37.4 °F 100% 29.63 in 1.8 mi Calm Calm - 0.02 in Rain Light Rain
1:53 PM 37.0 °F - 37.0 °F 100% 29.64 in 0.8 mi Calm Calm - 0.02 in Rain Light Rain
2:05 PM 37.4 °F - 37.4 °F 100% 29.63 in 1.8 mi Calm Calm - 0.00 in Rain Light Rain
2:28 PM 37.4 °F 34.9 °F 37.4 °F 100% 29.63 in 2.5 mi North 3.5 mph - 0.00 in Rain Light Rain
2:37 PM 37.4 °F - 37.4 °F 100% 29.62 in 1.0 mi Calm Calm - 0.01 in Rain Light Rain
2:53 PM 37.9 °F - 37.9 °F 100% 29.62 in 2.0 mi Calm Calm - 0.01 in Rain Light Rain
3:00 PM 37.4 °F - 37.4 °F 100% 29.63 in 1.0 mi Calm Calm - 0.01 in Rain Light Rain
3:26 PM 37.4 °F - 37.4 °F 100% 29.63 in 0.5 mi Calm Calm - 0.03 in Fog , Rain Light Rain
3:53 PM 37.9 °F - 37.9 °F 100% 29.62 in 0.5 mi Calm Calm - 0.05 in Fog , Rain Light Rain
4:50 PM 37.4 °F 34.9 °F 37.4 °F 100% 29.61 in 2.0 mi South 3.5 mph - 0.02 in Rain Light Rain
4:53 PM 37.0 °F 32.4 °F 37.0 °F 100% 29.61 in 4.0 mi South 5.8 mph - 0.02 in Rain Light Rain
5:53 PM 36.0 °F 31.1 °F 36.0 °F 100% 29.62 in 7.0 mi South 5.8 mph - 0.02 in Rain Light Rain
6:53 PM 36.0 °F 33.3 °F 36.0 °F 100% 29.62 in 10.0 mi South 3.5 mph - 0.02 in   Overcast
7:53 PM 36.0 °F - 36.0 °F 100% 29.63 in 10.0 mi Calm Calm - 0.01 in Rain Light Rain
8:53 PM 35.1 °F - 35.1 °F 100% 29.63 in 10.0 mi Calm Calm - 0.02 in Rain Light Rain
9:53 PM 35.1 °F - 35.1 °F 100% 29.65 in 6.0 mi Calm Calm - 0.00 in Rain Light Rain
10:53 PM 35.1 °F - 35.1 °F 100% 29.66 in 10.0 mi Calm Calm - 0.02 in Rain Light Rain
11:53 PM 35.1 °F - 35.1 °F 100% 29.66 in 10.0 mi Calm Calm - 0.02 in Rain Light Rain